Location: Deurze
(52.9838°N, 6.6090°E)
Time: 18:39:05
(UTC+00:00)

Cosmos 1763 Rocket - Pass Details

Date: 11 March 2026
Orbit: 727 x 774 km, 74.0° (Epoch: 20 April)

Event Time Altitude Azimuth Distance (km) Brightness Sun altitude
Rises 18:17:30 0° 336° (NNW) 3,230 7.2 -7.9°
Reaches altitude 10° 18:20:02 10° 344° (NNW) 2,308 6.3 -8.3°
Maximum altitude 18:24:56 39° 53° (NE) 1,150 4.1 -9.0°
Drops below altitude 10° 18:29:51 10° 122° (ESE) 2,316 5.4 -9.7°
Enters shadow 18:29:59 - 123° (ESE) 2,365 5.5 -9.8°
